Home   Weather   Chesterfield   Past weeks

Flag for United Kingdom Past Weather in Chesterfield, England, United Kingdom — Yesterday and Last 2 Weeks

Now
37 °F

Chilly.


Feels Like: 31 °F
Forecast: 29 / 39 °F
Wind: 8 mph from Northeast

Location: Nottingham Weather Centre

Current Time: Dec 4, 2016 at 10:28:54 am

Latest Report: Dec 4, 2016 at 9:00 am


Visibility: 25 mi

Pressure: 30.33 "Hg

Humidity: 88%

Dew Point: 34 °F

Location of ChesterfieldLocation

Past Weather in Chesterfield — Graph

°F

Chesterfield Temperature Yesterday

Maximum temperature yesterday: 44 °F (at 2:00 pm)
Minimum temperature yesterday: 38 °F (at 11:00 pm)
Average temperature yesterday: 41 °F

High & Low Weather Summary for the Past Weeks

 TemperatureHumidityPressure
High48 °F (Nov 25, 1:00 pm)100% (Nov 22, 2:00 am)30.59 "Hg (Nov 22, 2:00 am)
Low28 °F (Nov 29, 7:00 am)52% (Nov 28, 1:00 pm)28.97 "Hg (Nov 20, 6:00 am)
Average41 °F88%30.11 "Hg
* Reported Nov 19 9:00 am — Dec 4 9:00 am, Chesterfield, Weather by CustomWeather, © 2016

Note: Actual official high and low records may vary slightly from our data, if they occured in-between our weather recording intervals... More about our weather records

Advertising

Chesterfield Weather History for the Previous 24 Hours

Scroll right to see more
 ConditionsComfort  
Time TempWeatherWind HumidityBarometerVisibility
9:00 am
Sun, Dec 4
37 °FChilly.8 mph88%30.33 "Hg25 mi
8:00 am36 °FChilly.7 mph88%30.33 "Hg25 mi
7:00 am39 °FChilly.8 mph83%30.32 "Hg28 mi
6:00 am39 °FChilly.9 mph83%30.31 "Hg28 mi
5:00 am40 °FChilly.9 mph79%30.32 "Hg28 mi
4:00 am40 °FQuite cool.9 mph76%30.32 "Hg28 mi
3:00 am41 °FQuite cool.9 mph76%30.32 "Hg28 mi
2:00 am39 °FChilly.8 mph79%30.33 "Hg28 mi
1:00 am37 °FChilly.8 mph83%30.33 "Hg25 mi
12:00 am36 °FChilly.7 mph85%30.34 "Hg25 mi
11:00 pm
Sat, Dec 3
38 °FChilly.7 mph83%30.34 "Hg25 mi
10:00 pm39 °FChilly.6 mph83%30.34 "Hg28 mi
9:00 pm39 °FChilly.7 mph84%30.34 "Hg25 mi
8:00 pm40 °FQuite cool.7 mph82%30.33 "Hg28 mi
7:00 pm41 °FQuite cool.6 mph81%30.33 "Hg28 mi
6:00 pm42 °FQuite cool.7 mph80%30.32 "Hg28 mi
5:00 pm42 °FQuite cool.7 mph79%30.32 "Hg28 mi
4:00 pm43 °FQuite cool.7 mph75%30.32 "Hg31 mi
3:00 pm44 °FQuite cool.7 mph71%30.32 "Hg31 mi
2:00 pm44 °FQuite cool.7 mph75%30.32 "Hg31 mi
1:00 pm43 °FQuite cool.8 mph78%30.32 "Hg31 mi
12:00 pm43 °FQuite cool.7 mph76%30.34 "Hg31 mi
11:00 am43 °FQuite cool.6 mph75%30.35 "Hg31 mi
10:00 am41 °FQuite cool.5 mph85%30.35 "Hg22 mi
Weather by CustomWeather, © 2016

See weather overviewHow to use our weather pages